Location: Ackerson Creek
(37.8210°N, 119.8757°W)
Time: 14:52:10
(UTC+00:00)

Cosmos 1515 Rocket - Pass Details

Date: 13 April 2024
Orbit: 602 x 627 km, 82.5° (Epoch: 22 May)

Event Time Altitude Azimuth Distance (km) Brightness Sun altitude
Exits shadow 12:15:14 - 184° (S) 2,886 6.7 -14.1°
Reaches altitude 10° 12:17:26 10° 184° (S) 1,995 5.9 -13.7°
Maximum altitude 12:21:52 86° 98° (E) 635 3.6 -12.9°
Drops below altitude 10° 12:26:20 10° 8° (N) 2,010 6.6 -12.1°
Sets 12:28:34 0° 8° (N) 2,920 7.5 -11.7°
